This demonstration page uses our WeatherBlox Daily Observations layout. Learn more.

Left ArrowRight Arrow

38.20091, -84.87328

Hourly Observations for September 10, 2021

Temp ( °F °C ) Dew Point ( °F °C ) Humidity (%) Winds ( mph kmh ) Pressure ( in mb ) Visibility ( mi km ) Precip ( " mm )
12:53 am 00:53 Clear 59 15 57 13.9 93 93 Calm 30.04 1017 10 16 0.00 0.00
1:53 am 01:53 Clear 57 13.9 56 13.3 96 96 Calm 30.05 1018 10 16 0.00 0.00
2:53 am 02:53 Clear 57 13.9 55 12.8 93 93 Calm 30.05 1018 10 16 0.00 0.00
3:53 am 03:53 Clear 56 13.3 55 12.8 97 97 Calm 30.05 1018 10 16 0.00 0.00
4:53 am 04:53 Clear 56 13.3 54 12.2 93 93 Calm 30.06 1018 10 16 0.00 0.00
5:53 am 05:53 Clear 54 12.2 53 11.7 97 97 Calm 30.07 1018 10 16 0.00 0.00
6:53 am 06:53 Clear 53 11.7 52 11.1 96 96 Calm 30.09 1019 10 16 0.00 0.00
7:53 am 07:53 Sunny 54 12.2 53 11.7 97 97 Calm 30.11 1020 7 11 0.00 0.00
8:00 am 08:00 Mostly Sunny 55 12.8 53 11.7 93 93 Calm 30.12 1020 7 11 0.00 0.00
8:53 am 08:53 Sunny 60 15.6 57 13.9 90 90 Calm 30.11 1020 10 16 0.00 0.00
9:53 am 09:53 Sunny 67 19.4 59 15 76 76 E 3 6 30.13 1020 10 16 0.00 0.00
10:53 am 10:53 Sunny 71 21.7 58 14.4 63 63 Calm 30.14 1021 10 16 0.00 0.00
11:53 am 11:53 Sunny 75 23.9 57 13.9 54 54 Calm 30.14 1021 10 16 0.00 0.00
12:53 pm 12:53 Mostly Sunny 78 25.6 53 11.7 42 42 Calm 30.14 1021 10 16 0.00 0.00
1:53 pm 13:53 Mostly Sunny 77 25 53 11.7 43 43 SSW 6 9 30.13 1020 10 16 0.00 0.00
2:53 pm 14:53 Mostly Sunny 77 25 54 12.2 45 45 SSW 3 6 30.11 1020 10 16 0.00 0.00
3:53 pm 15:53 Mostly Sunny 79 26.1 52 11.1 39 39 Calm 30.09 1019 10 16 0.00 0.00
4:53 pm 16:53 Sunny 77 25 55 12.8 47 47 SW 6 9 30.09 1019 10 16 0.00 0.00
5:53 pm 17:53 Sunny 78 25.6 53 11.7 42 42 W 3 6 30.08 1019 10 16 0.00 0.00
6:53 pm 18:53 Sunny 76 24.4 56 13.3 50 50 Calm 30.08 1019 10 16 0.00 0.00
7:53 pm 19:53 Sunny 69 20.6 61 16.1 76 76 Calm 30.08 1019 10 16 0.00 0.00
8:53 pm 20:53 Clear 64 17.8 59 15 84 84 Calm 30.09 1019 10 16 0.00 0.00
9:53 pm 21:53 Clear 62 16.7 58 14.4 86 86 Calm 30.10 1019 10 16 0.00 0.00
10:53 pm 22:53 Clear 61 16.1 58 14.4 90 90 Calm 30.11 1020 10 16 0.00 0.00
11:53 pm 23:53 Clear 60 15.6 58 14.4 93 93 Calm 30.11 1020 10 16 0.00 0.00

Powered by AerisWeather